Voltar ao catálogo

COSMOS 1275 DEB

AtivoPO
NORAD 39954·DEBRIS·🇷🇺 Russia

Lançado Jun 4, 1981 de Plesetsk Cosmodrome

Loading…

Próximas Passagens (próximas 24 horas)

TLE

AtualizadoSource: Space-Track

Época: Sep 13, 2026, 18:39 UTC

1 39954U 81053NQ  26256.77753941  .00004554  00000-0  13258-2 0  9990
2 39954  82.8904  16.0033 0037025 342.8013  17.1924 14.43674047635956

Acompanhe COSMOS 1275 DEB em tempo real com AllMySat

Download on the App Store